Location: Unspecified
(43.9500°N, 64.7900°W)
Time: 19:27:30
(UTC-03:00)

OTV 5 (USA 277) - Visible Passes

Search period start: 18 October 2018 00:00
Search period end: 28 October 2018 00:00
Orbit: 387 x 394 km, 54.5° (Epoch: 08 September)

Date Brightness Start Highest point End Pass type
(mag) Time Alt. Az. Time Alt. Az. Time Alt. Az.
18 Oct ? 05:21:02 15° SE 05:21:02 15° SE 05:21:41 10° SE visible
23 Oct ? 20:22:31 10° SW 20:23:43 21° SSW 20:23:43 21° SSW visible
24 Oct ? 19:26:45 10° S 19:29:20 23° SE 19:29:58 22° ESE visible
24 Oct ? 21:02:05 10° WSW 21:02:22 12° W 21:02:22 12° W visible
25 Oct ? 20:05:26 10° SW 20:08:28 77° W 20:08:28 77° W visible
26 Oct ? 19:09:12 10° SSW 19:12:15 44° SE 19:14:27 17° ENE visible
26 Oct ? 20:45:31 10° W 20:46:51 19° WNW 20:46:51 19° WNW visible
27 Oct ? 19:48:37 10° WSW 19:51:43 45° NNW 19:52:44 32° NNE visible
